CW2640 Weather Reports


time (UTC)temp
C
wind
direction
speed
KPH
gust
KPH
rain 1hr
cm
rain 24hr
cm
rain mn
cm
humidity
%
barometer
mb
20260504214116 25 150 0.0 0.0 0.00 0.00 0.00 45 1013.6
20260504211114 25 109 0.0 0.0 0.00 0.00 0.00 46 1013.7
20260504204112 26 105 0.0 0.0 0.00 0.00 0.00 44 1014.1
20260504201111 26 103 0.0 0.0 0.00 0.00 0.00 41 1014.4
20260504194107 25 102 0.0 0.0 0.00 0.00 0.00 45 1014.9
20260504191103 25 109 0.0 0.0 0.00 0.00 0.00 47 1015.0
20260504184103 25 105 0.0 0.0 0.00 0.00 0.00 54 1015.2
20260504181059 25 101 0.0 0.0 0.00 0.00 0.00 51 1015.8
20260504174056 23 97 0.0 0.0 0.00 0.00 0.00 51 1016.4
20260504171055 24 88 0.0 0.0 0.00 0.00 0.00 50 1016.5
20260504151044 20 86 0.0 0.0 0.00 0.00 0.00 64 1017.8
20260504141043 17 80 0.0 0.0 0.00 0.00 0.00 71 1018.1
20260504081019 7 152 0.0 0.0 0.00 0.00 0.00 99 1017.0
20260504044003 9 187 0.0 0.0 0.00 0.00 0.00 97 1018.7
20260504041000 10 198 0.0 0.0 0.00 0.00 0.00 95 1018.9
20260504033959 10 206 0.0 0.0 0.00 0.00 0.00 92 1018.7
20260504030959 11 210 0.0 0.0 0.00 0.00 0.00 90 1019.0
20260504023958 11 212 0.0 0.0 0.00 0.00 0.00 87 1019.0
20260504020954 12 212 0.0 0.0 0.00 0.00 0.00 85 1018.7
20260504013950 13 216 0.0 0.0 0.00 0.00 0.00 81 1018.5
20260504010949 14 224 0.0 0.0 0.00 0.00 0.00 74 1018.0
20260504003948 16 233 0.0 0.0 0.00 0.00 0.00 63 1018.1
20260504000947 17 241 0.0 0.0 0.00 0.00 0.00 53 1017.9
20260503233944 19 248 0.0 0.0 0.00 0.00 0.00 45 1017.9
20260503230942 20 251 0.0 0.0 0.00 0.00 0.00 45 1018.0
20260503223941 20 252 0.0 0.0 0.00 0.00 0.00 44 1018.0
20260503220937 21 245 0.0 0.0 0.00 0.00 0.00 42 1018.2